IBE540 LPPT-LEMD

Flight info

Callsign IBE540
Flight time 0h 49m
Altitude 32000
Route ORVED DCT OGERO DCT ROLDO DCT RUKER Z409 TLD
Aircraft A321/M-SDE3FGHIRWY/LB1

Departure

Time 2026-05-07 22:51
Airport Lisbon Humberto Delgado Airport (LPPT)

Arrival

Time 2026-05-07 23:41
Airport Adolfo Suárez Madrid–Barajas Airport (LEMD)
Time Latitude Longitude Altitude Speed Heading
2026-05-07 22:27 38.76981 -9.13082 337 ft 0 kts 79°
2026-05-07 22:35 38.76981 -9.13083 337 ft 0 kts 79°
2026-05-07 22:42 38.76978 -9.13103 333 ft 2 kts 84°
2026-05-07 22:42 38.76978 -9.13124 334 ft 2 kts 95°
2026-05-07 22:42 38.76980 -9.13145 335 ft 2 kts 113°
2026-05-07 22:43 38.76989 -9.13163 336 ft 2 kts 145°
2026-05-07 22:43 38.77003 -9.13173 338 ft 2 kts 166°
2026-05-07 22:43 38.77010 -9.13175 336 ft 0 kts 168°
2026-05-07 22:45 38.77009 -9.13175 336 ft 2 kts 168°
2026-05-07 22:45 38.76969 -9.13163 337 ft 7 kts 167°
2026-05-07 22:45 38.76924 -9.13151 336 ft 6 kts 168°
2026-05-07 22:46 38.76885 -9.13140 337 ft 7 kts 167°
2026-05-07 22:46 38.76800 -9.13132 338 ft 13 kts 210°
2026-05-07 22:46 38.76770 -9.13231 337 ft 11 kts 257°
2026-05-07 22:46 38.76753 -9.13330 346 ft 14 kts 259°
2026-05-07 22:47 38.76703 -9.13420 353 ft 12 kts 214°
2026-05-07 22:47 38.76624 -9.13477 350 ft 15 kts 188°
2026-05-07 22:47 38.76540 -9.13446 352 ft 7 kts 132°
2026-05-07 22:47 38.76566 -9.13422 349 ft 6 kts 340°
2026-05-07 22:48 38.76620 -9.13476 351 ft 16 kts 319°
2026-05-07 22:48 38.76630 -9.13630 351 ft 18 kts 257°
2026-05-07 22:48 38.76605 -9.13787 346 ft 18 kts 258°
2026-05-07 22:48 38.76575 -9.13973 346 ft 24 kts 258°
2026-05-07 22:49 38.76496 -9.14127 353 ft 20 kts 256°
2026-05-07 22:49 38.76539 -9.14310 333 ft 19 kts 292°
2026-05-07 22:49 38.76623 -9.14400 335 ft 16 kts 21°
2026-05-07 22:49 38.76646 -9.14387 333 ft 0 kts 23°
2026-05-07 22:50 38.76778 -9.14316 337 ft 55 kts 22°
2026-05-07 22:50 38.77337 -9.14018 364 ft 116 kts 22°
2026-05-07 22:51 38.78240 -9.13538 372 ft 162 kts 22°
2026-05-07 22:51 38.79347 -9.12919 659 ft 181 kts 22°
2026-05-07 22:51 38.80502 -9.12294 1351 ft 178 kts 20°
2026-05-07 22:51 38.81658 -9.11636 1823 ft 191 kts 27°
2026-05-07 22:52 38.82867 -9.10714 2030 ft 214 kts 27°
2026-05-07 22:52 38.84223 -9.09679 2344 ft 238 kts 28°
2026-05-07 22:52 38.85674 -9.08565 3047 ft 247 kts 29°
2026-05-07 22:52 38.87171 -9.07408 3801 ft 255 kts 29°
2026-05-07 22:53 38.88701 -9.06197 4554 ft 263 kts 35°
2026-05-07 22:53 38.89970 -9.04463 5231 ft 273 kts 59°
2026-05-07 22:53 38.90818 -9.02252 5998 ft 278 kts 66°
2026-05-07 22:53 38.91653 -8.99989 6786 ft 282 kts 66°
2026-05-07 22:54 38.92501 -8.97698 7573 ft 285 kts 66°
2026-05-07 22:54 38.93361 -8.95385 8375 ft 288 kts 66°
2026-05-07 22:54 38.94231 -8.93048 9176 ft 291 kts 66°
2026-05-07 22:54 38.95111 -8.90690 9937 ft 294 kts 66°
2026-05-07 22:55 38.96018 -8.88264 10319 ft 312 kts 66°
2026-05-07 22:55 38.96990 -8.85658 10469 ft 335 kts 65°
2026-05-07 22:55 38.98014 -8.82912 10638 ft 354 kts 65°
2026-05-07 22:55 38.99092 -8.80014 11146 ft 362 kts 65°
2026-05-07 22:56 39.00182 -8.77075 11780 ft 366 kts 65°
2026-05-07 22:56 39.01285 -8.74104 12428 ft 370 kts 65°
2026-05-07 22:56 39.02400 -8.71100 13081 ft 374 kts 65°
2026-05-07 22:56 39.03525 -8.68063 13721 ft 378 kts 65°
2026-05-07 22:57 39.04657 -8.64995 14277 ft 381 kts 65°
2026-05-07 22:57 39.05800 -8.61894 14834 ft 385 kts 65°
2026-05-07 22:57 39.06954 -8.58769 15368 ft 388 kts 65°
2026-05-07 22:57 39.08119 -8.55617 15910 ft 392 kts 65°
2026-05-07 22:58 39.09296 -8.52433 16429 ft 396 kts 65°
2026-05-07 22:58 39.10479 -8.49219 16948 ft 399 kts 65°
2026-05-07 22:58 39.11671 -8.45970 17436 ft 403 kts 65°
2026-05-07 22:58 39.12874 -8.42691 17902 ft 407 kts 65°
2026-05-07 22:59 39.14089 -8.39380 18351 ft 410 kts 65°
2026-05-07 22:59 39.15312 -8.36045 18759 ft 413 kts 65°
2026-05-07 22:59 39.16543 -8.32687 19168 ft 416 kts 65°
2026-05-07 22:59 39.17780 -8.29313 19568 ft 418 kts 65°
2026-05-07 23:00 39.19024 -8.25911 19980 ft 420 kts 66°
2026-05-07 23:00 39.20269 -8.22493 20398 ft 423 kts 66°
2026-05-07 23:00 39.21518 -8.19051 20814 ft 425 kts 66°
2026-05-07 23:00 39.22775 -8.15584 21236 ft 428 kts 66°
2026-05-07 23:01 39.24039 -8.12098 21666 ft 431 kts 66°
2026-05-07 23:01 39.25316 -8.08586 22104 ft 433 kts 66°
2026-05-07 23:01 39.26600 -8.05058 22531 ft 436 kts 66°
2026-05-07 23:01 39.27864 -8.01551 22959 ft 438 kts 67°
2026-05-07 23:02 39.29063 -7.97927 23384 ft 441 kts 70°
2026-05-07 23:02 39.30167 -7.94222 23746 ft 443 kts 71°
2026-05-07 23:02 39.31213 -7.90463 24077 ft 446 kts 72°
2026-05-07 23:02 39.32242 -7.86672 24408 ft 448 kts 72°
2026-05-07 23:03 39.33282 -7.82861 24729 ft 451 kts 72°
2026-05-07 23:03 39.34347 -7.79030 25048 ft 454 kts 72°
2026-05-07 23:03 39.35439 -7.75187 25363 ft 457 kts 72°
2026-05-07 23:03 39.36552 -7.71315 25664 ft 461 kts 71°
2026-05-07 23:04 39.37675 -7.67429 25978 ft 463 kts 71°
2026-05-07 23:04 39.38823 -7.63522 26278 ft 467 kts 70°
2026-05-07 23:04 39.40069 -7.59633 26575 ft 470 kts 69°
2026-05-07 23:04 39.41401 -7.55754 26878 ft 474 kts 68°
2026-05-07 23:05 39.42778 -7.51872 27163 ft 477 kts 67°
2026-05-07 23:05 39.44169 -7.47964 27449 ft 479 kts 68°
2026-05-07 23:05 39.45552 -7.44034 27722 ft 482 kts 68°
2026-05-07 23:05 39.46923 -7.40060 27996 ft 484 kts 68°
2026-05-07 23:06 39.48282 -7.36059 28245 ft 487 kts 69°
2026-05-07 23:06 39.49635 -7.32036 28481 ft 489 kts 69°
2026-05-07 23:06 39.50986 -7.27986 28714 ft 491 kts 69°
2026-05-07 23:06 39.52347 -7.23910 28916 ft 493 kts 69°
2026-05-07 23:07 39.53715 -7.19826 29132 ft 495 kts 69°
2026-05-07 23:07 39.55088 -7.15729 29416 ft 495 kts 69°
2026-05-07 23:07 39.56461 -7.11639 29710 ft 495 kts 69°
2026-05-07 23:07 39.57837 -7.07548 29979 ft 495 kts 69°
2026-05-07 23:08 39.59211 -7.03452 30217 ft 496 kts 69°
2026-05-07 23:08 39.60585 -6.99350 30462 ft 495 kts 69°
2026-05-07 23:08 39.61950 -6.95257 30722 ft 495 kts 69°
2026-05-07 23:08 39.63313 -6.91164 30982 ft 494 kts 69°
2026-05-07 23:09 39.64677 -6.87063 31256 ft 494 kts 69°
2026-05-07 23:09 39.66036 -6.82974 31515 ft 494 kts 69°
2026-05-07 23:09 39.67377 -6.78935 31778 ft 493 kts 69°
2026-05-07 23:09 39.68731 -6.74846 31901 ft 491 kts 69°
2026-05-07 23:10 39.70070 -6.70807 31921 ft 485 kts 69°
2026-05-07 23:10 39.72720 -6.62789 31911 ft 482 kts 69°
2026-05-07 23:11 39.75353 -6.54790 31918 ft 482 kts 69°
2026-05-07 23:11 39.77978 -6.46781 31918 ft 481 kts 69°
2026-05-07 23:12 39.80193 -6.38615 31912 ft 477 kts 81°
2026-05-07 23:12 39.81051 -6.30093 31897 ft 475 kts 86°
2026-05-07 23:13 39.81816 -6.21565 31902 ft 475 kts 86°
2026-05-07 23:13 39.82587 -6.13024 31895 ft 475 kts 86°
2026-05-07 23:14 39.83340 -6.04474 31898 ft 475 kts 86°
2026-05-07 23:14 39.84074 -5.95925 31894 ft 475 kts 86°
2026-05-07 23:15 39.84811 -5.87383 31899 ft 475 kts 86°
2026-05-07 23:15 39.85546 -5.78835 31893 ft 475 kts 86°
2026-05-07 23:16 39.86266 -5.70289 31898 ft 475 kts 86°
2026-05-07 23:16 39.86981 -5.61740 31894 ft 475 kts 86°
2026-05-07 23:17 39.87696 -5.53182 31896 ft 476 kts 86°
2026-05-07 23:17 39.88403 -5.44608 31901 ft 476 kts 86°
2026-05-07 23:18 39.89101 -5.36027 31907 ft 476 kts 86°
2026-05-07 23:18 39.89796 -5.27448 31911 ft 477 kts 86°
2026-05-07 23:19 39.90370 -5.20301 31912 ft 478 kts 86°
2026-05-07 23:19 39.91058 -5.11708 31278 ft 476 kts 86°
2026-05-07 23:19 39.91398 -5.07418 30477 ft 477 kts 86°
2026-05-07 23:20 39.91848 -5.01719 29361 ft 477 kts 86°
2026-05-07 23:20 39.92078 -4.98804 28730 ft 478 kts 86°
2026-05-07 23:20 39.92416 -4.94504 27813 ft 478 kts 86°
2026-05-07 23:20 39.92748 -4.90184 26860 ft 478 kts 86°
2026-05-07 23:21 39.93075 -4.85881 26132 ft 475 kts 86°
2026-05-07 23:21 39.93399 -4.81627 25494 ft 469 kts 86°
2026-05-07 23:21 39.93720 -4.77419 24856 ft 464 kts 86°
2026-05-07 23:21 39.94035 -4.73257 24219 ft 459 kts 86°
2026-05-07 23:22 39.94345 -4.69145 23594 ft 454 kts 86°
2026-05-07 23:22 39.94650 -4.65071 22857 ft 449 kts 86°
2026-05-07 23:22 39.94951 -4.61046 22146 ft 444 kts 86°
2026-05-07 23:22 39.95249 -4.57062 21456 ft 439 kts 86°
2026-05-07 23:23 39.95542 -4.53122 20767 ft 434 kts 86°
2026-05-07 23:23 39.95828 -4.49229 20073 ft 429 kts 86°
2026-05-07 23:23 39.96110 -4.45381 19379 ft 424 kts 86°
2026-05-07 23:23 39.96378 -4.41573 18689 ft 419 kts 88°
2026-05-07 23:24 39.96293 -4.37818 17993 ft 412 kts 99°
2026-05-07 23:24 39.95698 -4.34210 17243 ft 404 kts 110°
2026-05-07 23:24 39.94671 -4.30895 16541 ft 396 kts 119°
2026-05-07 23:24 39.93248 -4.27853 15874 ft 389 kts 129°
2026-05-07 23:25 39.91573 -4.25121 15214 ft 384 kts 131°
2026-05-07 23:25 39.89893 -4.22433 14591 ft 381 kts 131°
2026-05-07 23:25 39.88229 -4.19775 13982 ft 377 kts 131°
2026-05-07 23:25 39.86582 -4.17146 13346 ft 373 kts 131°
2026-05-07 23:26 39.85015 -4.14477 12689 ft 370 kts 124°
2026-05-07 23:26 39.83807 -4.11534 12053 ft 368 kts 114°
2026-05-07 23:26 39.83012 -4.08388 11459 ft 366 kts 104°
2026-05-07 23:26 39.82563 -4.05143 10856 ft 362 kts 101°
2026-05-07 23:27 39.81873 -3.98741 9942 ft 348 kts 91°
2026-05-07 23:27 39.82109 -3.95684 9812 ft 333 kts 79°
2026-05-07 23:27 39.82809 -3.92888 9680 ft 319 kts 66°
2026-05-07 23:28 39.83895 -3.90450 9550 ft 305 kts 54°
2026-05-07 23:28 39.85256 -3.88409 9152 ft 294 kts 47°
2026-05-07 23:28 39.86681 -3.86511 8753 ft 291 kts 46°
2026-05-07 23:28 39.88095 -3.84639 8348 ft 289 kts 46°
2026-05-07 23:29 39.89496 -3.82785 7943 ft 286 kts 47°
2026-05-07 23:29 39.90885 -3.80942 7509 ft 284 kts 46°
2026-05-07 23:29 39.92271 -3.79103 7062 ft 284 kts 46°
2026-05-07 23:29 39.93649 -3.77273 6661 ft 282 kts 47°
2026-05-07 23:30 39.95015 -3.75457 6251 ft 280 kts 47°
2026-05-07 23:30 39.96369 -3.73650 5831 ft 277 kts 47°
2026-05-07 23:30 39.97711 -3.71859 5407 ft 275 kts 47°
2026-05-07 23:30 39.99044 -3.70077 5005 ft 273 kts 48°
2026-05-07 23:31 40.00365 -3.68310 4592 ft 271 kts 48°
2026-05-07 23:31 40.01675 -3.66553 4187 ft 269 kts 48°
2026-05-07 23:31 40.02969 -3.64820 3952 ft 264 kts 49°
2026-05-07 23:31 40.04262 -3.63090 3959 ft 268 kts 49°
2026-05-07 23:32 40.05567 -3.61348 3958 ft 268 kts 48°
2026-05-07 23:32 40.06871 -3.59601 3960 ft 268 kts 49°
2026-05-07 23:32 40.08154 -3.57878 3959 ft 268 kts 49°
2026-05-07 23:32 40.09472 -3.56111 3958 ft 268 kts 49°
2026-05-07 23:33 40.10758 -3.54384 3956 ft 268 kts 49°
2026-05-07 23:33 40.12057 -3.52638 3958 ft 268 kts 49°
2026-05-07 23:33 40.13358 -3.50890 3957 ft 267 kts 49°
2026-05-07 23:33 40.14614 -3.49206 3948 ft 251 kts 49°
2026-05-07 23:34 40.15818 -3.47588 3951 ft 247 kts 49°
2026-05-07 23:34 40.17014 -3.45983 3951 ft 247 kts 47°
2026-05-07 23:34 40.18258 -3.44429 3947 ft 247 kts 45°
2026-05-07 23:34 40.19533 -3.42924 3977 ft 247 kts 45°
2026-05-07 23:35 40.20840 -3.41466 3970 ft 248 kts 38°
2026-05-07 23:35 40.22340 -3.40329 3970 ft 249 kts 31°
2026-05-07 23:35 40.23869 -3.39241 3975 ft 250 kts 31°
2026-05-07 23:35 40.25482 -3.38373 3972 ft 253 kts 17°
2026-05-07 23:36 40.27198 -3.38077 3963 ft 240 kts
2026-05-07 23:36 40.28806 -3.37965 3954 ft 226 kts
2026-05-07 23:36 40.30349 -3.37863 3956 ft 220 kts
2026-05-07 23:36 40.31842 -3.38223 3957 ft 214 kts 339°
2026-05-07 23:37 40.33065 -3.39146 3952 ft 195 kts 321°
2026-05-07 23:37 40.34163 -3.40270 3968 ft 203 kts 321°
2026-05-07 23:37 40.35282 -3.41399 3959 ft 203 kts 321°
2026-05-07 23:37 40.36400 -3.42527 3961 ft 203 kts 321°
2026-05-07 23:38 40.37523 -3.43662 3988 ft 203 kts 321°
2026-05-07 23:38 40.38619 -3.44770 3972 ft 192 kts 322°
2026-05-07 23:38 40.39662 -3.45825 3823 ft 186 kts 322°
2026-05-07 23:38 40.40676 -3.46851 3606 ft 183 kts 322°
2026-05-07 23:39 40.41676 -3.47863 3370 ft 180 kts 322°
2026-05-07 23:39 40.42661 -3.48860 3129 ft 177 kts 323°
2026-05-07 23:39 40.43621 -3.49832 2870 ft 171 kts 323°
2026-05-07 23:39 40.44520 -3.50744 2638 ft 155 kts 324°
2026-05-07 23:40 40.45346 -3.51580 2431 ft 145 kts 323°
2026-05-07 23:40 40.46126 -3.52371 2242 ft 139 kts 323°
2026-05-07 23:40 40.46893 -3.53149 2065 ft 140 kts 323°
2026-05-07 23:40 40.47665 -3.53930 1930 ft 137 kts 323°
2026-05-07 23:41 40.48338 -3.54614 1935 ft 98 kts 321°
2026-05-07 23:41 40.48719 -3.55016 1949 ft 46 kts 311°
2026-05-07 23:41 40.48821 -3.55288 1952 ft 29 kts 292°
2026-05-07 23:41 40.48926 -3.55497 1953 ft 23 kts 320°
2026-05-07 23:42 40.49049 -3.55623 1954 ft 22 kts 322°
2026-05-07 23:42 40.49163 -3.55738 1959 ft 23 kts 322°
2026-05-07 23:42 40.49294 -3.55871 1960 ft 23 kts 312°
2026-05-07 23:42 40.49289 -3.56026 1959 ft 15 kts 278°
2026-05-07 23:43 40.49256 -3.56137 1959 ft 14 kts 196°
2026-05-07 23:43 40.49148 -3.56141 1959 ft 21 kts 180°
2026-05-07 23:43 40.48989 -3.56140 1959 ft 23 kts 180°
2026-05-07 23:43 40.48835 -3.56137 1959 ft 18 kts 179°
2026-05-07 23:44 40.48769 -3.56225 1961 ft 14 kts 267°
2026-05-07 23:44 40.48768 -3.56364 1965 ft 16 kts 270°
2026-05-07 23:44 40.48768 -3.56497 1974 ft 16 kts 270°
2026-05-07 23:44 40.48767 -3.56679 1978 ft 20 kts 270°
2026-05-07 23:45 40.48766 -3.56838 1978 ft 17 kts 269°
2026-05-07 23:45 40.48766 -3.57014 1983 ft 21 kts 269°
2026-05-07 23:45 40.48765 -3.57195 1983 ft 19 kts 270°
2026-05-07 23:45 40.48763 -3.57355 1986 ft 17 kts 269°
2026-05-07 23:46 40.48763 -3.57519 1990 ft 18 kts 270°
2026-05-07 23:46 40.48764 -3.57689 1992 ft 19 kts 270°
2026-05-07 23:46 40.48763 -3.57853 1996 ft 16 kts 269°
2026-05-07 23:46 40.48702 -3.57926 1999 ft 12 kts 182°
2026-05-07 23:47 40.48607 -3.57949 1999 ft 16 kts 229°
2026-05-07 23:47 40.48597 -3.58076 2004 ft 15 kts 270°
2026-05-07 23:47 40.48597 -3.58220 2006 ft 14 kts 269°
2026-05-07 23:47 40.48597 -3.58373 2011 ft 21 kts 270°
2026-05-07 23:48 40.48596 -3.58544 2017 ft 14 kts 269°
2026-05-07 23:48 40.48595 -3.58660 2026 ft 13 kts 269°
2026-05-07 23:48 40.48626 -3.58803 2030 ft 18 kts 333°
2026-05-07 23:48 40.48750 -3.58810 2028 ft 18 kts 359°
2026-05-07 23:49 40.48873 -3.58811 2022 ft 18 kts 359°
2026-05-07 23:49 40.48930 -3.58882 2026 ft 12 kts 268°
2026-05-07 23:49 40.48929 -3.58954 2022 ft 3 kts 270°
2026-05-07 23:49 40.48929 -3.58960 2022 ft 0 kts 270°
2026-05-07 23:50 40.48929 -3.58964 2022 ft 0 kts 269°